WetterOnline ( http://www.wetteronline.de )

Wetter aktuell Luckenwalde

Aktuelles Wetter: Baruth (55m)

6-stündlich | Neueste Meldungen
Ortszeit Temperatur Wetter
So, 22.07. 2:00 16.3° C bedeckt
Sa, 21.07. 20:00 26.5° C bedeckt
Sa, 21.07. 14:00 27.8° C leicht bewölkt
Sa, 21.07. 8:00 16.5° C leicht bewölkt
Sa, 21.07. 2:00 12.3° C wolkig
Fr, 20.07. 20:00 25.7° C leicht bewölkt
Fr, 20.07. 14:00 26.0° C bewölkt
Fr, 20.07. 8:00 16.3° C wolkenlos
Ortszeit Temperatur Wetter
So, 22.07. 6:30 15.3° C bedeckt
So, 22.07. 6:10 15.2° C bedeckt
So, 22.07. 6:00 14.0° C bedeckt
So, 22.07. 5:50 14.0° C bedeckt
So, 22.07. 5:40 14.1° C bedeckt
So, 22.07. 5:30 14.0° C wolkig
So, 22.07. 5:00 14.1° C bewölkt
So, 22.07. 4:30 15.2° C bedeckt
So, 22.07. 4:00 15.0° C bedeckt
So, 22.07. 3:30 15.5° C bedeckt
Ortszeit Relative Feuchte Sichtweite
So, 22.07. 2:00 74% 26 km
Sa, 21.07. 20:00 35% 35 km
Sa, 21.07. 14:00 28% 30 km
Sa, 21.07. 8:00 75% 22 km
Sa, 21.07. 2:00 85% 11 km
Fr, 20.07. 20:00 33% 50 km
Fr, 20.07. 14:00 34% 40 km
Fr, 20.07. 8:00 71% 24 km
Ortszeit Relative Feuchte Sichtweite
So, 22.07. 6:30 80% 22 km
So, 22.07. 6:10 79% -
So, 22.07. 6:00 85% 15 km
So, 22.07. 5:50 85% -
So, 22.07. 5:40 83% -
So, 22.07. 5:30 83% 19 km
So, 22.07. 5:00 83% 18 km
So, 22.07. 4:30 77% 23 km
So, 22.07. 4:00 81% 21 km
So, 22.07. 3:30 76% 26 km
Ortszeit Niederschlagsmenge Niederschlagsart
So, 22.07. 2:00 0.0 l/m2 in 6 Std. -
Sa, 21.07. 20:00 0.0 l/m2 in 12 Std. -
Sa, 21.07. 14:00 0.0 l/m2 in 6 Std. -
Sa, 21.07. 8:00 0.0 l/m2 in 12 Std. -
Sa, 21.07. 2:00 0.0 l/m2 in 6 Std. -
Fr, 20.07. 20:00 0.0 l/m2 in 12 Std. -
Fr, 20.07. 14:00 0.0 l/m2 in 6 Std. -
Fr, 20.07. 8:00 0.0 l/m2 in 12 Std. -
Ortszeit Niederschlagsmenge Niederschlagsart
So, 22.07. 6:30 0.0 l/m2 in 1 Std. -
So, 22.07. 6:10 keine Meldung -
So, 22.07. 6:00 0.0 l/m2 in 1 Std. -
So, 22.07. 5:50 keine Meldung -
So, 22.07. 5:40 keine Meldung -
So, 22.07. 5:30 0.0 l/m2 in 1 Std. -
So, 22.07. 5:00 0.0 l/m2 in 1 Std. -
So, 22.07. 4:30 0.0 l/m2 in 1 Std. -
So, 22.07. 4:00 0.0 l/m2 in 1 Std. -
So, 22.07. 3:30 0.0 l/m2 in 1 Std. -
Ortszeit Stärke Spitze Richtung
km/h Bft. km/h Grad Sektor
So, 22.07. 2:00 4 1 14 80° O
Sa, 21.07. 20:00 6 1 22 40° NO
Sa, 21.07. 14:00 7 2 18 30° NO
Sa, 21.07. 8:00 4 1 7 130° SO
Sa, 21.07. 2:00 4 1 11 290° W
Fr, 20.07. 20:00 4 1 25 360° N
Fr, 20.07. 14:00 9 2 24 310° NW
Fr, 20.07. 8:00 2 1 6 270° W
Ortszeit Stärke Spitze Richtung
km/h Bft. km/h Grad Sektor
So, 22.07. 6:30 4 1 7 300° NW
So, 22.07. 6:10 4 1 - 280° W
So, 22.07. 6:00 4 1 7 250° W
So, 22.07. 5:50 4 1 - 250° W
So, 22.07. 5:40 2 1 - 280° W
So, 22.07. 5:30 4 1 7 270° W
So, 22.07. 5:00 0 0 7 - -
So, 22.07. 4:30 4 1 7 340° N
So, 22.07. 4:00 0 0 4 - -
So, 22.07. 3:30 2 1 4 270° W
Ortszeit Untergrenze Bedeckung Gattung
total tief tief mittel hoch
So, 22.07. 2:00 4200 m 8/8 8/8 - - -
Sa, 21.07. 20:00 5400 m 8/8 8/8 - - -
Sa, 21.07. 14:00 7200 m 6/8 0/8 - - -
Sa, 21.07. 8:00 8700 m 8/8 0/8 - - -
Sa, 21.07. 2:00 10500 m 8/8 0/8 - - -
Fr, 20.07. 20:00 10500 m 8/8 0/8 - - -
Fr, 20.07. 14:00 2400 m 8/8 7/8 - - -
Fr, 20.07. 8:00 - 0/8 0/8 - - -
Ortszeit Bedeckungsgrad in Achtel und Wolkenuntergrenze
So, 22.07. 6:30 8(4500m)
So, 22.07. 6:10 8(4800m) 8(6600m)
So, 22.07. 6:00 8(5100m) 8(6900m)
So, 22.07. 5:50 8(5100m) 8(6900m)
So, 22.07. 5:40 8(5100m)
So, 22.07. 5:30 2(2700m) 7(5400m) 8(6000m)
So, 22.07. 5:00 4(2700m) 8(7200m) 8(10500m)
So, 22.07. 4:30 7(4800m) 8(6900m) 8(7500m)
So, 22.07. 4:00 8(4800m)
So, 22.07. 3:30 3(4200m) 8(4800m)
Ortszeit Luftdruck NN (hPa) Tendenz (hPa in 3 Std.)
So, 22.07. 2:00 1012 + 0,6
Sa, 21.07. 20:00 1011 - 0,2
Sa, 21.07. 14:00 1012 - 0,8
Sa, 21.07. 8:00 1013 - 0,3
Sa, 21.07. 2:00 1013 - 0,1
Fr, 20.07. 20:00 1012 - 0,6
Fr, 20.07. 14:00 1014 - 1,0
Fr, 20.07. 8:00 1016 - 0,4
Ortszeit Luftdruck NN (hPa) Tendenz (hPa in 3 Std.)
So, 22.07. 6:30 1013 + 0,3
So, 22.07. 6:10 1013 keine Meldung
So, 22.07. 6:00 1013 + 0,3
So, 22.07. 5:50 1013 keine Meldung
So, 22.07. 5:40 1012 keine Meldung
So, 22.07. 5:30 1012 + 0,2
So, 22.07. 5:00 1012 + 0,1
So, 22.07. 4:30 1012 + 0,1
So, 22.07. 4:00 1012 + 0,1
So, 22.07. 3:30 1012 + 0,1
Ortszeit Schneehöhe (cm)
So, 22.07. 2:00 -
Sa, 21.07. 20:00 -
Sa, 21.07. 14:00 -
Sa, 21.07. 8:00 -
Sa, 21.07. 2:00 -
Fr, 20.07. 20:00 -
Fr, 20.07. 14:00 -
Fr, 20.07. 8:00 -
Ortszeit Schneehöhe (cm)
So, 22.07. 6:30 -
So, 22.07. 6:10 -
So, 22.07. 6:00 -
So, 22.07. 5:50 -
So, 22.07. 5:40 -
So, 22.07. 5:30 -
So, 22.07. 5:00 -
So, 22.07. 4:30 -
So, 22.07. 4:00 -
So, 22.07. 3:30 -
Link zu dieser Seite / Seite empfehlen

Das Wetter in ...